Погода в Среднекане

Погода в Среднекане : погода сейчас, прогноз погоды и архив. Всё, что Вы хотите узнать о погоде в Среднекане!

Поиск расширенной информации на нашем сайте:

Другие новости

Новости СМИ2

Главная страница сайта

Новости сайта

03.07.2017

Напоминаем, что на нашем специализированном сайте Метеоцентр.Азия вы можете получить высокодетализированные автоматические прогнозы погоды по пунктам России, СНГ и мира в авиационном формате (включающие направление и скорость ветра, видимость, явления погоды, количество и форму облачности, нижнюю и верхнюю границу облачности).


Погода в Среднекане - сегодня

Время (UTC), дата Ветер
(°,м/с) 
Видим.   Явления Облачность Т
(°С)
Тd
(°С)
f(%) Тe
(°С)
Pmin
(гПа)
dP
(гПа)
Po
(мм)
O2
(г/м3)
Тmin Tmax R s Состояние
почвы
06 18.10.18 тихо ()   20000 м  {ливн. осадки}  ясно 
-12.4 -17 68 -12  1014  -1.2  735  312           
12 18.10.18 110 (В) 20000 м    5/0 верхняя 
[Ci fib]
-20.3 -22.1 85 -23  1015.9  0.4  736  322           
15 18.10.18 100 (В) 20000 м    5/0 верхняя 
[Ci fib]
-20.4 -22.7 82 -25  1015.9  0.1  736  322           
18 18.10.18 110 (В) 20000 м    5/0 верхняя 
[Ci fib]
-21.9 -24.4 80 -25  1016.3  0.1  736  324           
00 19.10.18 100 (В) 20000 м    9/8 1000 м средняя 
[Sc|Ac trans]
-16.7 -20.5 72 -19  1016  -0.3  736  317           
03 19.10.18 090 (В) 20000 м    8/3 1000 м средняя 
[Sc|Ac trans]
-11.6 -17.6 61 -14  1014.6  -0.7  735  311           
06 19.10.18 тихо ()   20000 м    10/3 1000 м средняя 
[Sc|Ac und]
-11.8 -16.2 70 -12  1014.5  -0.2  735  311           
12 19.10.18 110 (В) 20000 м    10/4 1000 м верхняя 
[Sc|Ci fib]
-13.8 -15.8 85 -14  1015.1  0.1  736  313           
15 19.10.18 тихо ()   20000 м  слаб. ливневой снег  10/10 1000 м кучево-дожд. 
[Cb cap]
-13.9 -15.6 87 -14  1015.2  736  314           
18 19.10.18 030 (СВ) 20000 м  слаб. ливневой снег  10/10 1000 м кучево-дожд. 
[Cb cap]
-13.5 -14.8 90 -13  1014.8  -0.3  735  313           
21 19.10.18 тихо ()   20000 м  слаб. ливневой снег  10/10 1000 м кучево-дожд. 
[Cb cap]
-13.2 -14.4 91 -13  1015.4  0.6  736  313  -15    0.3  51  равномерный
сухой снег
100% 
03 20.10.18 190 (Ю) 20000 м  слаб. ливневой снег  10/10 1000 м кучево-дожд. 
[Cb cap]
-8.9 -11.9 79 -9  1014.9  -0.3  736  308           
06 20.10.18 170 (Ю) 20000 м  слаб. ливневой снег  10/6 1000 м кучево-дожд., средняя, верхняя 
[Cb cap|Ac lent|Ci fib]
-9.1 -11.4 83 -9  1015.7  0.7  736  308           
12 20.10.18 тихо ()   20000 м  слаб. ливневой снег  10/10 1000 м кучево-дожд. 
[Cb cap]
-12.8 -13.9 91 -13  1019.1  1.3  739  313           
15 20.10.18 тихо ()   20000 м  слаб. ливневой снег  10/10 1000 м кучево-дожд. 
[Cb cap]
-12.5 -13.8 90 -13  1019.5  0.4  739  313           
18 20.10.18 110 (В) 20000 м  слаб. ливневой снег  10/10 1000 м кучево-дожд. 
[Cb cap]
-11.9 -13.3 89 -12  1020.3  0.8  740  313           
21 20.10.18 110 (В) 20000 м  слаб. ливневой снег  10/10 1000 м кучево-дожд. 
[Cb cap]
-12.6 -13.9 90 -13  1020.9  0.5  740  314  -13.3    0.9  54  равномерный
сухой снег
100% 
03 21.10.18 170 (Ю) 20000 м  {ливн. осадки}  10/3 1000 м средняя, верхняя 
[Sc|Ac lent|Ci fib]
-6.8 -11 72 -6  1019.9  -0.6  740  307           
06 21.10.18 120 (ЮВ) 20000 м  {ливн. осадки}  9/4 1000 м верхняя 
[Sc|Ci fib]
-9.4 -12.7 77 -9  1020  -0.2  740  310           
12 21.10.18 110 (В) 20000 м  слаб. ливневой снег  10/5 1000 м кучево-дожд., верхняя 
[Cb cap|Ci fib]
-13.7 -14.8 91 -14  1020.3  -0.3  739  315           
15 21.10.18 тихо ()   20000 м  слаб. ливневой снег  10/8 1000 м кучево-дожд., верхняя 
[Cb cap|Ci fib]
-11.6 -12.9 90 -12  1019.6  -0.4  739  312           
18 21.10.18 120 (ЮВ) 10 км  слаб. ливневой снег  10/10 1000 м кучево-дожд. 
[Cb cap]
-11.6 -13.1 89 -11  1019.3  -0.4  739  312           
21 21.10.18 110 (В) 20000 м  слаб. ливневой снег  10/10 1000 м кучево-дожд. 
[Cb cap]
-11.2 -12.8 88 -11  1019  -0.2  739  312  -13.8    0.3  54  равномерный
сухой снег
100% 
03 22.10.18 200 (Ю) 20000 м  {ливн. осадки}  9/9 1000 м кучево-дожд., верхняя 
[Cb cap|Ci fib]
-7 -12.4 65 -7  1017.5  -0.6  738  306           
06 22.10.18 220 (ЮЗ) 20000 м  {ливн. осадки}  8/8 1000 м кучево-дожд. 
[Cb cap]
-8 -13.8 63 -8  1017.5  -0.2  738  307           
Время (UTC), дата Ветер
(°,м/с) 
Видим.   Явления Облачность Т
(°С)
Тd
(°С)
f(%) Тe
(°С)
Pmin
(гПа)
dP
(гПа)
Po
(мм)
O2
(г/м3)
Тmin Tmax R s Состояние
почвы

Для получения пояснительной информации подведите курсор к названию столбца.

ПОГОДА в Среднекане - архив

Всё, что Вы хотите узнать о погоде в Среднекане - удобно и подробно!

Выберите нужную дату (начиная с 1 января 2015* года) и нажмите кнопку "Найти".
Будут отображены архивные сводки погоды по пункту Среднекан, начиная с указанной даты.


Отображать данные в формате CSV (для использования в таблицах Excel)


Внимание! Наш архив погоды предназначен исключительно для личного некоммерческого использования в познавательных целях. Если Вам необходимы официальные справки о состоянии погоды (для производственных, юридических, коммерческих и т.п. целей), обращайтесь в органы Росгидромета.

*Примечание: данная дата относится к архиву по метеостанциям СССР (Россия, СНГ, Балтия).
Архив по метеостанциям Зарубежной Европы и Азии (кроме Китая) хранится 10 дней, по другим регионам земного шара (Китай, Африка, Америка, Австралия, Океания) - 1 день.

Среднекан - район местоположения метеостанции


Название, широта, долгота, высота метеостанции:
Среднекан 62.5°ш. 152.3°д. 260 м над ур. моря [Российская Федерация]

Дополнительная информация

В oтличие oт бoльшинства пoгoдных сайтoв мы публикуем пoдрoбную метеoинфoрмацию в детальнoм прoфессиoнальнoм фoрмате.

Характеристики температуры и влажнoсти вoздуха измеряются на высoте 2 м в тени вдали oт зданий и деревьев.
Скoрoсть ветра измеряется на высoте 10 м (на урoвне рoста челoвека скoрoсть ветра ниже в 1.5-2 раза). Если метеoстанция нахoдится в гoрoде или в лесу, тo скoрoсть ветра занижена на 2-4 м/с пo сравнению с oткрытым местoм. Скoрoсть ветра над акватoриями крупных рек и oзёр, а также на вершинах хoлмoв на 2-5 м/с выше, чем в oбычных услoвиях.
Атмoсфернoе давление в разных тoчках местнoсти мoжет значительнo oтличаться oт давления на метеoстанции, в зависимoсти oт услoвий рельефа (при пoдъёме на 10 м давление пoнижается примернo на 1 мм рт.ст.).